Simultaneous Nadir Overpasses (SNOs) Predictions

Prediction of SNOs between GOES-14 and NPP Satellite Orbit:

Table of predicted SNOs for the next 14.0 days since TLE Epoch: 10/5/2024
Index Date Time (GOES-14) GOES-14 Lat,Lon NPP Lat,Lon Distance(km) Time Diff (sec)
1 10/06/2024 08:57:28 -0.06,-108.54 0.86,-112.71 475.01 80
2 10/07/2024 08:36:01 -0.06,-108.54 -0.16,-108.17 42.73 80
3 10/09/2024 20:39:05 0.07,-108.49 0.00,-108.91 48.07 80
4 10/10/2024 20:22:56 0.07,-108.49 0.98,-104.36 470.00 80
5 10/12/2024 08:44:40 -0.08,-108.55 0.17,-109.62 121.58 80
6 10/13/2024 08:23:12 -0.08,-108.55 -0.88,-105.08 396.10 80
7 10/14/2024 20:45:01 0.08,-108.49 -0.37,-110.34 212.55 80
8 10/15/2024 20:28:54 0.08,-108.49 0.70,-105.81 305.84 80
9 10/17/2024 08:50:36 -0.08,-108.56 0.47,-111.06 284.50 80
10 10/18/2024 08:29:08 -0.08,-108.56 -0.55,-106.51 233.44 80
